SL-16 DEB

Satellite information

Favourite Embed

Satellite Type and Status

DEBRISIN ORBIT

Key statistics

Satellite SL-16 DEB at a glance.

Uptime

12041

Days in orbit

Revolutions

≈ 14.3

Per day

Orbit

LEO

Low Earth Orbit

Inclination

71.1

Latest

Satellite identification and parameters

Extended collection of information and parameters for SL-16 DEB.

Object identification

Identified? True

Debris? True

Object name: SL-16 DEB

International designator: 1992-093JL

Object number (NORAD): 27749

Object ID (CCSDS): 27749

Country: COMMONWEALTH OF INDEPENDENT STATES (CIS)

Current information (Y/N): Y

RCS size: SMALL

Orbital parameters

Period: 100.742 minutes

Inclination: 71.0996 deg

SMA: 7171.912 km

Apoapsis: 857.796 km

Periapsis: 729.757 km

RAAN: 276.0642 deg

Eccentricy: 0.00892638

Argument of periapsis: 88.4927 deg

Mean anomaly: 342.9273 deg

Mean motion: 14.29388777 rev/day

Mean motion (dot): 0.00005774 rev/day2

B* drag term: 0.0021847534 1/REarth

Two-line elements (TLE)

Creation date: Dec. 11, 2025, 10:54 a.m.

Reference frame: TEME

Reference center: EARTH

Epoch: Dec. 11, 2025, 5:14 a.m. UTC

TLE line 0: 0 SL-16 DEB

TLE line 1: 1 27749U 92093JL 25345.21830042 .00005774 00000-0 21848-2 0 9999

TLE line 2: 2 27749 71.0996 276.0642 0089264 88.4927 342.9273 14.29388777267503

Live tracking on map

Real-time ground track for satellite SL-16 DEB.

In-orbit conjunctions

A list of the most updated potential collisions computed for object SL-16 DEB.

Target Orbit TCA Probability of collision Miss distance Type
COSMOS 2251 DEB LEO 2025-07-28 05:49:24 0.0001968572 514.0 (m) DEBRIS
CZ-4 DEB SSO 2025-04-14 12:58:39 0.0001136666 278.0 (m) DEBRIS
SCOUT X-4 R/B LEO 2025-03-16 21:15:09 0.0001827315 260.0 (m) ROCKET BODY
CZ-2D R/B LEO 2024-06-16 08:43:01 0.00147051 56.0 (m) ROCKET BODY

Associated space launch

Second generation ELING satellite

SL-16 DEB was lifted into orbit during the mission ‘Zenit-2 | Tselina-2 12’, on board a Zenit-2 space rocket.

The launch took place on Dec. 25, 1992, 5:56 a.m. from 45/1.

For more information about the launch, click the button.

Launch to space Zenit-2 | Tselina-2 12
Zenit-2 | Tselina-2 12

Agency: N/A

Status: Launch Successful

Launch date: Dec. 25, 1992, 5:56 a.m. UTC

Rocket: Zenit-2

Launch pad: 45/1

Location: Baikonur Cosmodrome, Republic of Kazakhstan

...

Latest news about this satellite

There are no fresh news available about this satellite. Check back as we update our databases every day.


Newsletter sign-up

Weekly statistics, charts and insights to help you stay on top of the space industry.